Location: Newark
(40.8000°N, 14.5000°E)
Time: 11:54:01
(UTC+00:00)

OTV 5 (USA 277) - Pass Details

Date: 26 August 2019
Orbit: 295 x 339 km, 54.5° (Epoch: 08 September)

Event Time Altitude Azimuth Distance (km) Brightness Sun altitude
Rises 18:22:22 0° 231° (SW) 2,005 ? -7.7°
Reaches altitude 10° 18:24:19 10° 234° (SW) 1,176 ? -8.0°
Maximum altitude 18:26:55 71° 319° (NW) 321 ? -8.5°
Drops below altitude 10° 18:29:29 10° 45° (NE) 1,168 ? -8.9°
Sets 18:31:25 0° 47° (NE) 1,990 ? -9.3°
